Time,TemperatureF,DewpointF,PressureIn,WindDirection,WindDirectionDegrees,WindSpeedMPH,WindSpeedGustMPH,Humidity,HourlyPrecipIn,Conditions,Clouds,dailyrainin,SolarRadiationWatts/m^2,SoftwareType,DateUTC
2013-01-18 00:04:00,34.0,25.0,-100.00,NE,36,3.0,7.0,69,0.00,,,1.24,0.000000,,2013-01-18 05:04:00,
2013-01-18 00:12:00,34.0,25.0,-100.00,NE,36,3.0,7.0,69,0.00,,,1.24,0.000000,,2013-01-18 05:12:00,
2013-01-18 00:22:00,34.0,25.0,-100.00,NE,36,3.0,7.0,69,0.00,,,1.24,0.000000,,2013-01-18 05:22:00,
2013-01-18 00:32:00,33.0,23.0,-100.00,NNW,348,3.0,7.0,67,0.00,,,1.24,0.000000,,2013-01-18 05:32:00,
2013-01-18 00:53:00,33.0,23.0,-100.00,NNW,348,3.0,7.0,67,0.00,,,1.24,0.000000,,2013-01-18 05:53:00,
2013-01-18 01:02:00,33.0,23.0,-100.00,NNW,348,3.0,7.0,67,0.00,,,1.24,0.000000,,2013-01-18 06:02:00,
2013-01-18 01:12:00,33.0,23.0,-100.00,NNW,348,3.0,7.0,67,0.00,,,1.24,0.000000,,2013-01-18 06:12:00,
2013-01-18 01:22:00,33.0,23.0,-100.00,NNW,348,3.0,7.0,67,0.00,,,1.24,0.000000,,2013-01-18 06:22:00,
2013-01-18 01:32:00,32.0,24.0,-100.00,North,1,4.0,7.0,71,0.00,,,1.21,0.000000,,2013-01-18 06:32:00,
2013-01-18 01:53:00,32.0,24.0,-100.00,North,1,4.0,7.0,71,0.00,,,1.21,0.000000,,2013-01-18 06:53:00,
2013-01-18 02:02:00,32.0,24.0,-100.00,North,1,4.0,7.0,71,0.00,,,1.21,0.000000,,2013-01-18 07:02:00,
2013-01-18 02:12:00,32.0,24.0,-100.00,North,1,4.0,7.0,71,0.00,,,1.21,0.000000,,2013-01-18 07:12:00,
2013-01-18 02:22:00,32.0,24.0,-100.00,North,1,4.0,7.0,71,0.00,,,1.21,0.000000,,2013-01-18 07:22:00,
2013-01-18 02:32:00,31.0,23.0,-100.00,North,2,5.0,7.0,72,0.00,,,1.18,0.000000,,2013-01-18 07:32:00,
2013-01-18 02:52:00,31.0,23.0,-100.00,North,2,5.0,7.0,72,0.00,,,1.18,0.000000,,2013-01-18 07:52:00,
2013-01-18 03:02:00,31.0,23.0,-100.00,North,2,5.0,7.0,72,0.00,,,1.18,0.000000,,2013-01-18 08:02:00,
2013-01-18 03:12:00,31.0,23.0,-100.00,North,2,5.0,7.0,72,0.00,,,1.18,0.000000,,2013-01-18 08:12:00,
2013-01-18 03:22:00,31.0,23.0,-100.00,North,2,5.0,7.0,72,0.00,,,1.18,0.000000,,2013-01-18 08:22:00,
2013-01-18 03:32:00,30.0,21.0,-100.00,NNE,20,4.0,6.0,70,0.00,,,1.17,0.000000,,2013-01-18 08:32:00,
2013-01-18 03:53:00,30.0,21.0,-100.00,NNE,20,4.0,6.0,70,0.00,,,1.17,0.000000,,2013-01-18 08:53:00,
2013-01-18 04:03:00,30.0,21.0,-100.00,NNE,20,4.0,6.0,70,0.00,,,1.17,0.000000,,2013-01-18 09:03:00,
2013-01-18 04:12:00,30.0,21.0,-100.00,NNE,20,4.0,6.0,70,0.00,,,1.17,0.000000,,2013-01-18 09:12:00,
2013-01-18 04:22:00,30.0,21.0,-100.00,NNE,20,4.0,6.0,70,0.00,,,1.17,0.000000,,2013-01-18 09:22:00,
2013-01-18 04:32:00,31.0,22.0,-100.00,NNE,23,5.0,9.0,69,0.00,,,1.15,0.000000,,2013-01-18 09:32:00,
2013-01-18 04:53:00,31.0,22.0,-100.00,NNE,23,5.0,9.0,69,0.00,,,1.15,0.000000,,2013-01-18 09:53:00,
2013-01-18 05:03:00,31.0,22.0,-100.00,NNE,23,5.0,9.0,69,0.00,,,1.15,0.000000,,2013-01-18 10:03:00,
2013-01-18 05:12:00,31.0,22.0,-100.00,NNE,23,5.0,9.0,69,0.00,,,1.15,0.000000,,2013-01-18 10:12:00,
2013-01-18 05:22:00,31.0,22.0,-100.00,NNE,23,5.0,9.0,69,0.00,,,1.15,0.000000,,2013-01-18 10:22:00,
2013-01-18 05:32:00,30.0,19.0,-100.00,West,269,1.0,7.0,62,0.00,,,1.11,0.000000,,2013-01-18 10:32:00,
2013-01-18 05:53:00,30.0,19.0,-100.00,West,269,1.0,7.0,62,0.00,,,1.11,0.000000,,2013-01-18 10:53:00,
2013-01-18 06:03:00,30.0,19.0,-100.00,West,269,1.0,7.0,62,0.00,,,1.11,0.000000,,2013-01-18 11:03:00,
2013-01-18 06:12:00,30.0,19.0,-100.00,West,269,1.0,7.0,62,0.00,,,1.11,0.000000,,2013-01-18 11:12:00,
2013-01-18 06:23:00,30.0,19.0,-100.00,West,269,1.0,7.0,62,0.00,,,1.11,0.000000,,2013-01-18 11:23:00,
2013-01-18 06:32:00,27.0,22.0,-100.00,SW,229,2.0,5.0,81,0.00,,,1.09,0.000000,,2013-01-18 11:32:00,
2013-01-18 06:53:00,27.0,22.0,-100.00,SW,229,2.0,5.0,81,0.00,,,1.09,0.000000,,2013-01-18 11:53:00,
2013-01-18 07:03:00,27.0,22.0,-100.00,SW,229,2.0,5.0,81,0.00,,,1.09,0.000000,,2013-01-18 12:03:00,
2013-01-18 07:12:00,27.0,22.0,-100.00,SW,229,2.0,5.0,81,0.00,,,1.09,0.000000,,2013-01-18 12:12:00,
2013-01-18 07:23:00,27.0,22.0,-100.00,SW,229,2.0,5.0,81,0.00,,,1.09,0.000000,,2013-01-18 12:23:00,
2013-01-18 07:32:00,26.0,23.0,-100.00,East,91,2.0,4.0,88,0.00,,,1.08,0.000000,,2013-01-18 12:32:00,
2013-01-18 07:53:00,26.0,23.0,-100.00,East,91,2.0,4.0,88,0.00,,,1.08,0.000000,,2013-01-18 12:53:00,
2013-01-18 08:03:00,26.0,23.0,-100.00,East,91,2.0,4.0,88,0.00,,,1.08,0.000000,,2013-01-18 13:03:00,
2013-01-18 08:12:00,26.0,23.0,-100.00,East,91,2.0,4.0,88,0.00,,,1.08,0.000000,,2013-01-18 13:12:00,
2013-01-18 08:23:00,26.0,23.0,-100.00,East,91,2.0,4.0,88,0.00,,,1.08,0.000000,,2013-01-18 13:23:00,
2013-01-18 08:32:00,29.0,27.0,-100.00,NNE,18,2.0,5.0,94,0.00,,,1.08,22.000000,,2013-01-18 13:32:00,
2013-01-18 08:53:00,29.0,27.0,-100.00,NNE,18,2.0,5.0,94,0.00,,,1.08,22.000000,,2013-01-18 13:53:00,
2013-01-18 09:03:00,29.0,27.0,-100.00,NNE,18,2.0,5.0,94,0.00,,,1.08,22.000000,,2013-01-18 14:03:00,
2013-01-18 09:13:00,29.0,27.0,-100.00,NNE,18,2.0,5.0,94,0.00,,,1.08,22.000000,,2013-01-18 14:13:00,
2013-01-18 09:23:00,29.0,27.0,-100.00,NNE,18,2.0,5.0,94,0.00,,,1.08,22.000000,,2013-01-18 14:23:00,
2013-01-18 09:32:00,33.0,27.0,-100.00,NNE,14,3.0,5.0,78,0.00,,,1.05,171.000000,,2013-01-18 14:32:00,
2013-01-18 09:53:00,33.0,27.0,-100.00,NNE,14,3.0,5.0,78,0.00,,,1.05,171.000000,,2013-01-18 14:53:00,
2013-01-18 10:03:00,33.0,27.0,-100.00,NNE,14,3.0,5.0,78,0.00,,,1.05,171.000000,,2013-01-18 15:03:00,
2013-01-18 10:13:00,33.0,27.0,-100.00,NNE,14,3.0,5.0,78,0.00,,,1.05,171.000000,,2013-01-18 15:13:00,
2013-01-18 10:23:00,33.0,27.0,-100.00,NNE,14,3.0,5.0,78,0.00,,,1.05,171.000000,,2013-01-18 15:23:00,
2013-01-18 10:32:00,40.0,26.0,-100.00,WSW,239,2.0,4.0,57,0.00,,,0.96,290.000000,,2013-01-18 15:32:00,
2013-01-18 10:54:00,40.0,26.0,-100.00,WSW,239,2.0,4.0,57,0.00,,,0.96,290.000000,,2013-01-18 15:54:00,
2013-01-18 11:03:00,40.0,26.0,-100.00,WSW,239,2.0,4.0,57,0.00,,,0.96,290.000000,,2013-01-18 16:03:00,
2013-01-18 11:13:00,40.0,26.0,-100.00,WSW,239,2.0,4.0,57,0.00,,,0.96,290.000000,,2013-01-18 16:13:00,
2013-01-18 11:23:00,40.0,26.0,-100.00,WSW,239,2.0,4.0,57,0.00,,,0.96,290.000000,,2013-01-18 16:23:00,
2013-01-18 11:32:00,45.0,30.0,-100.00,SW,226,2.0,5.0,55,0.00,,,0.91,411.000000,,2013-01-18 16:32:00,
2013-01-18 11:53:00,45.0,30.0,-100.00,SW,226,2.0,5.0,55,0.00,,,0.91,411.000000,,2013-01-18 16:53:00,
2013-01-18 12:03:00,45.0,30.0,-100.00,SW,226,2.0,5.0,55,0.00,,,0.91,411.000000,,2013-01-18 17:03:00,
2013-01-18 12:13:00,45.0,30.0,-100.00,SW,226,2.0,5.0,55,0.00,,,0.91,411.000000,,2013-01-18 17:13:00,
2013-01-18 12:23:00,45.0,30.0,-100.00,SW,226,2.0,5.0,55,0.00,,,0.91,411.000000,,2013-01-18 17:23:00,
2013-01-18 12:32:00,49.0,30.0,-100.00,SW,234,2.0,4.0,48,0.00,,,0.65,479.000000,,2013-01-18 17:32:00,
2013-01-18 12:53:00,49.0,30.0,-100.00,SW,234,2.0,4.0,48,0.00,,,0.65,479.000000,,2013-01-18 17:53:00,
2013-01-18 13:03:00,49.0,30.0,-100.00,SW,234,2.0,4.0,48,0.00,,,0.65,479.000000,,2013-01-18 18:03:00,
2013-01-18 13:13:00,49.0,30.0,-100.00,SW,234,2.0,4.0,48,0.00,,,0.65,479.000000,,2013-01-18 18:13:00,
2013-01-18 13:23:00,49.0,30.0,-100.00,SW,234,2.0,4.0,48,0.00,,,0.65,479.000000,,2013-01-18 18:23:00,
2013-01-18 13:32:00,51.0,30.0,-100.00,WSW,244,4.0,6.0,44,0.00,,,0.43,498.000000,,2013-01-18 18:32:00,
2013-01-18 13:53:00,51.0,30.0,-100.00,WSW,244,4.0,6.0,44,0.00,,,0.43,498.000000,,2013-01-18 18:53:00,
2013-01-18 14:03:00,51.0,30.0,-100.00,WSW,244,4.0,6.0,44,0.00,,,0.43,498.000000,,2013-01-18 19:03:00,
2013-01-18 14:13:00,51.0,30.0,-100.00,WSW,244,4.0,6.0,44,0.00,,,0.43,498.000000,,2013-01-18 19:13:00,
2013-01-18 14:23:00,51.0,30.0,-100.00,WSW,244,4.0,6.0,44,0.00,,,0.43,498.000000,,2013-01-18 19:23:00,
2013-01-18 14:32:00,51.0,25.0,-100.00,SW,223,3.0,6.0,36,0.00,,,0.23,321.000000,,2013-01-18 19:32:00,
2013-01-18 14:53:00,51.0,25.0,-100.00,SW,223,3.0,6.0,36,0.00,,,0.23,321.000000,,2013-01-18 19:53:00,
2013-01-18 15:03:00,51.0,25.0,-100.00,SW,223,3.0,6.0,36,0.00,,,0.23,321.000000,,2013-01-18 20:03:00,
2013-01-18 15:13:00,51.0,25.0,-100.00,SW,223,3.0,6.0,36,0.00,,,0.23,321.000000,,2013-01-18 20:13:00,
2013-01-18 15:23:00,51.0,25.0,-100.00,SW,223,3.0,6.0,36,0.00,,,0.23,321.000000,,2013-01-18 20:23:00,
2013-01-18 15:32:00,52.0,22.0,-100.00,SW,228,3.0,5.0,31,0.00,,,0.07,162.000000,,2013-01-18 20:32:00,
2013-01-18 15:53:00,52.0,22.0,-100.00,SW,228,3.0,5.0,31,0.00,,,0.07,162.000000,,2013-01-18 20:53:00,
2013-01-18 16:03:00,52.0,22.0,-100.00,SW,228,3.0,5.0,31,0.00,,,0.07,162.000000,,2013-01-18 21:03:00,
2013-01-18 16:13:00,52.0,22.0,-100.00,SW,228,3.0,5.0,31,0.00,,,0.07,162.000000,,2013-01-18 21:13:00,
2013-01-18 16:23:00,52.0,22.0,-100.00,SW,228,3.0,5.0,31,0.00,,,0.07,162.000000,,2013-01-18 21:23:00,
2013-01-18 16:32:00,49.0,20.0,-100.00,SW,219,2.0,5.0,32,0.00,,,0.06,69.000000,,2013-01-18 21:32:00,
2013-01-18 16:53:00,49.0,20.0,-100.00,SW,219,2.0,5.0,32,0.00,,,0.06,69.000000,,2013-01-18 21:53:00,
2013-01-18 17:03:00,49.0,20.0,-100.00,SW,219,2.0,5.0,32,0.00,,,0.06,69.000000,,2013-01-18 22:03:00,
2013-01-18 17:12:00,49.0,20.0,-100.00,SW,219,2.0,5.0,32,0.00,,,0.06,69.000000,,2013-01-18 22:12:00,
2013-01-18 17:23:00,49.0,20.0,-100.00,SW,219,2.0,5.0,32,0.00,,,0.06,69.000000,,2013-01-18 22:23:00,
2013-01-18 17:32:00,46.0,24.0,-100.00,SSW,212,1.0,5.0,41,0.00,,,0.05,36.000000,,2013-01-18 22:32:00,
2013-01-18 17:53:00,46.0,24.0,-100.00,SSW,212,1.0,5.0,41,0.00,,,0.05,36.000000,,2013-01-18 22:53:00,
2013-01-18 18:03:00,46.0,24.0,-100.00,SSW,212,1.0,5.0,41,0.00,,,0.05,36.000000,,2013-01-18 23:03:00,
2013-01-18 18:12:00,46.0,24.0,-100.00,SSW,212,1.0,5.0,41,0.00,,,0.05,36.000000,,2013-01-18 23:12:00,
2013-01-18 18:23:00,46.0,24.0,-100.00,SSW,212,1.0,5.0,41,0.00,,,0.05,36.000000,,2013-01-18 23:23:00,
2013-01-18 18:32:00,40.0,25.0,-100.00,North,11,4.0,5.0,55,0.00,,,0.02,2.000000,,2013-01-18 23:32:00,
2013-01-18 18:53:00,40.0,25.0,-100.00,North,11,4.0,5.0,55,0.00,,,0.02,2.000000,,2013-01-18 23:53:00,
2013-01-18 19:03:00,40.0,25.0,-100.00,North,11,4.0,5.0,55,0.00,,,0.02,2.000000,,2013-01-19 00:03:00,
2013-01-18 19:13:00,40.0,25.0,-100.00,North,11,4.0,5.0,55,0.00,,,0.02,2.000000,,2013-01-19 00:13:00,
2013-01-18 19:23:00,40.0,25.0,-100.00,North,11,4.0,5.0,55,0.00,,,0.02,2.000000,,2013-01-19 00:23:00,
2013-01-18 19:32:00,36.0,29.0,-100.00,North,9,6.0,7.0,74,0.00,,,0.00,0.000000,,2013-01-19 00:32:00,
2013-01-18 19:53:00,36.0,29.0,-100.00,North,9,6.0,7.0,74,0.00,,,0.00,0.000000,,2013-01-19 00:53:00,
2013-01-18 20:03:00,36.0,29.0,-100.00,North,9,6.0,7.0,74,0.00,,,0.00,0.000000,,2013-01-19 01:03:00,
2013-01-18 20:12:00,36.0,29.0,-100.00,North,9,6.0,7.0,74,0.00,,,0.00,0.000000,,2013-01-19 01:12:00,
2013-01-18 20:23:00,36.0,29.0,-100.00,North,9,6.0,7.0,74,0.00,,,0.00,0.000000,,2013-01-19 01:23:00,
2013-01-18 20:32:00,34.0,28.0,-100.00,NNE,15,6.0,8.0,80,0.00,,,0.00,0.000000,,2013-01-19 01:32:00,
2013-01-18 20:53:00,34.0,28.0,-100.00,NNE,15,6.0,8.0,80,0.00,,,0.00,0.000000,,2013-01-19 01:53:00,
2013-01-18 21:03:00,34.0,28.0,-100.00,NNE,15,6.0,8.0,80,0.00,,,0.00,0.000000,,2013-01-19 02:03:00,
2013-01-18 21:12:00,34.0,28.0,-100.00,NNE,15,6.0,8.0,80,0.00,,,0.00,0.000000,,2013-01-19 02:12:00,
2013-01-18 21:23:00,34.0,28.0,-100.00,NNE,15,6.0,8.0,80,0.00,,,0.00,0.000000,,2013-01-19 02:23:00,
2013-01-18 21:32:00,32.0,28.0,-100.00,North,8,5.0,6.0,85,0.00,,,0.00,0.000000,,2013-01-19 02:32:00,
2013-01-18 21:53:00,32.0,28.0,-100.00,North,8,5.0,6.0,85,0.00,,,0.00,0.000000,,2013-01-19 02:53:00,
2013-01-18 22:03:00,32.0,28.0,-100.00,North,8,5.0,6.0,85,0.00,,,0.00,0.000000,,2013-01-19 03:03:00,
2013-01-18 22:12:00,32.0,28.0,-100.00,North,8,5.0,6.0,85,0.00,,,0.00,0.000000,,2013-01-19 03:12:00,
2013-01-18 22:23:00,32.0,28.0,-100.00,North,8,5.0,6.0,85,0.00,,,0.00,0.000000,,2013-01-19 03:23:00,
2013-01-18 22:32:00,31.0,28.0,-100.00,NNE,12,4.0,6.0,89,0.00,,,0.00,0.000000,,2013-01-19 03:32:00,
2013-01-18 22:53:00,31.0,28.0,-100.00,NNE,12,4.0,6.0,89,0.00,,,0.00,0.000000,,2013-01-19 03:53:00,
2013-01-18 23:03:00,31.0,28.0,-100.00,NNE,12,4.0,6.0,89,0.00,,,0.00,0.000000,,2013-01-19 04:03:00,
2013-01-18 23:12:00,31.0,28.0,-100.00,NNE,12,4.0,6.0,89,0.00,,,0.00,0.000000,,2013-01-19 04:12:00,
2013-01-18 23:22:00,31.0,28.0,-100.00,NNE,12,4.0,6.0,89,0.00,,,0.00,0.000000,,2013-01-19 04:22:00,
2013-01-18 23:32:00,30.0,28.0,-100.00,NNE,22,5.0,6.0,94,0.00,,,0.00,0.000000,,2013-01-19 04:32:00,
2013-01-18 23:53:00,30.0,28.0,-100.00,NNE,22,5.0,6.0,94,0.00,,,0.00,0.000000,,2013-01-19 04:53:00,